Location: Los Ranchitos
(37.9930°N, 122.5425°W)
Time: 06:16:46
(UTC+00:00)

Cosmos 1125 Rocket - Pass Details

Date: 21 September 2020
Orbit: 758 x 780 km, 74.0° (Epoch: 26 October)

Event Time Altitude Azimuth Distance (km) Brightness Sun altitude
Rises 03:43:08 0° 194° (SSW) 3,238 6.7 -19.1°
Reaches altitude 10° 03:45:30 10° 193° (SSW) 2,317 5.9 -19.5°
Maximum altitude 03:50:46 81° 107° (ESE) 793 3.4 -20.5°
Drops below altitude 10° 03:56:05 10° 20° (NNE) 2,338 6.0 -21.5°
Sets 03:58:29 0° 20° (NNE) 3,270 6.8 -22.0°
